QPF
0.09 0.13 0.13 0.15 0.14 0.16 0.20 0.22 0.20 0.16 0.14 0.11 0.10 0.09 0.08 0.06 0.04 0.02 0.02 0.01 0.00 0.02 0.03 0.02 0.02 0.01 0.02 0.02 0.01 0.02 0.03 0.04 0.06 0.08 0.07 0.05 0.05 0.05 0.04 0.04 0.03 0.03 0.02
0.06 0.10 0.12 0.14 0.16 0.15 0.18 0.20 0.18 0.20 0.18 0.15 0.12 0.10 0.07 0.04 0.04 0.05 0.04 0.01 0.00 0.01 0.02 0.03 0.02 0.03 0.02 0.03 0.02 0.02 0.02 0.03 0.04 0.06 0.07 0.05 0.05 0.06 0.05 0.04 0.03 0.02 0.02
0.04 0.07 0.09 0.11 0.14 0.14 0.14 0.19 0.20 0.22 0.20 0.16 0.15 0.11 0.06 0.04 0.03 0.06 0.05 0.03 0.02 0.01 0.01 0.01 0.02 0.03 0.03 0.04 0.03 0.02 0.02 0.03 0.03 0.03 0.05 0.05 0.05 0.05 0.04 0.03 0.03 0.03 0.02
0.03 0.05 0.06 0.08 0.11 0.14 0.14 0.16 0.19 0.23 0.21 0.21 0.19 0.14 0.07 0.06 0.04 0.04 0.06 0.05 0.04 0.02 0.01 0.01 0.01 0.04 0.05 0.05 0.04 0.03 0.02 0.02 0.03 0.03 0.04 0.04 0.04 0.04 0.04 0.03 0.03 0.03 0.03
0.01 0.02 0.04 0.07 0.10 0.14 0.15 0.14 0.17 0.21 0.22 0.24 0.21 0.18 0.13 0.10 0.06 0.04 0.07 0.06 0.06 0.04 0.05 0.02 0.01 0.02 0.03 0.05 0.05 0.04 0.03 0.02 0.02 0.03 0.04 0.03 0.02 0.03 0.03 0.02 0.02 0.02 0.02
0.02 0.02 0.04 0.06 0.09 0.10 0.12 0.14 0.18 0.20 0.20 0.21 0.18 0.17 0.16 0.13 0.10 0.07 0.06 0.07 0.10 0.08 0.08 0.06 0.02 0.01 0.01 0.02 0.03 0.02 0.01 0.02 0.02 0.02 0.03 0.02 0.02 0.02 0.02 0.02 0.02 0.02 0.01
0.03 0.04 0.04 0.05 0.07 0.08 0.10 0.12 0.16 0.19 0.19 0.22 0.22 0.22 0.22 0.17 0.13 0.09 0.06 0.05 0.11 0.15 0.13 0.10 0.06 0.04 0.02 0.01 0.01 0.01 0.01 0.01 0.03 0.03 0.03 0.03 0.02 0.01 0.02 0.02 0.02 0.02 0.01
0.04 0.04 0.04 0.06 0.07 0.09 0.11 0.13 0.15 0.18 0.19 0.24 0.23 0.22 0.21 0.23 0.17 0.11 0.08 0.07 0.09 0.14 0.16 0.14 0.11 0.09 0.05 0.04 0.01 0.01 0.01 0.01 0.03 0.03 0.03 0.03 0.02 0.01 0.01 0.01 0.01 0.01 0.02
0.03 0.03 0.04 0.05 0.06 0.09 0.11 0.13 0.16 0.18 0.19 0.21 0.26 0.26 0.20 0.18 0.19 0.13 0.10 0.08 0.10 0.14 0.14 0.15 0.14 0.11 0.08 0.06 0.03 0.01 0.01 0.01 0.01 0.03 0.04 0.03 0.02 0.01 0.01 0.01 0.01 0.01 0.02
0.02 0.03 0.04 0.04 0.05 0.07 0.10 0.11 0.13 0.18 0.20 0.20 0.21 0.24 0.23 0.21 0.22 0.19 0.15 0.10 0.10 0.13 0.16 0.16 0.14 0.13 0.10 0.10 0.06 0.02 0.01 0.01 0.01 0.02 0.03 0.03 0.03 0.02 0.02 0.01 0.01 0.01 0.02
0.04 0.05 0.05 0.05 0.05 0.07 0.09 0.11 0.12 0.14 0.16 0.19 0.21 0.21 0.22 0.23 0.21 0.22 0.20 0.17 0.14 0.11 0.12 0.14 0.13 0.13 0.13 0.12 0.10 0.05 0.03 0.01 0.00 0.02 0.02 0.03 0.04 0.04 0.03 0.02 0.01 0.01 0.01
0.05 0.04 0.05 0.06 0.07 0.07 0.07 0.10 0.11 0.11 0.12 0.14 0.18 0.20 0.19 0.19 0.18 0.21 0.21 0.21 0.20 0.16 0.13 0.13 0.13 0.11 0.10 0.12 0.10 0.08 0.06 0.02 0.00 0.01 0.03 0.03 0.03 0.04 0.04 0.04 0.03 0.03 0.02
0.05 0.05 0.04 0.05 0.06 0.05 0.05 0.08 0.08 0.08 0.09 0.10 0.11 0.13 0.16 0.18 0.21 0.23 0.24 0.24 0.20 0.18 0.18 0.14 0.13 0.13 0.09 0.09 0.11 0.10 0.07 0.03 0.01 0.00 0.01 0.02 0.03 0.04 0.05 0.06 0.05 0.03 0.02
0.05 0.05 0.04 0.04 0.03 0.03 0.04 0.06 0.06 0.06 0.08 0.10 0.09 0.10 0.12 0.14 0.18 0.18 0.18 0.23 0.22 0.18 0.17 0.16 0.14 0.14 0.12 0.09 0.13 0.12 0.06 0.04 0.02 0.01 0.01 0.01 0.02 0.03 0.04 0.05 0.05 0.04 0.04
0.06 0.05 0.06 0.05 0.05 0.05 0.05 0.06 0.06 0.06 0.08 0.09 0.11 0.11 0.11 0.13 0.14 0.13 0.14 0.16 0.19 0.20 0.17 0.16 0.15 0.14 0.14 0.15 0.19 0.11 0.07 0.05 0.03 0.01 0.01 0.01 0.01 0.02 0.02 0.03 0.03 0.03 0.03
0.05 0.05 0.05 0.07 0.08 0.07 0.05 0.05 0.05 0.06 0.07 0.08 0.10 0.11 0.11 0.11 0.13 0.14 0.13 0.13 0.14 0.15 0.17 0.16 0.14 0.14 0.16 0.16 0.19 0.13 0.11 0.10 0.06 0.03 0.02 0.01 0.01 0.01 0.01 0.02 0.02 0.01 0.01
0.05 0.04 0.05 0.06 0.08 0.08 0.08 0.08 0.07 0.06 0.07 0.08 0.08 0.09 0.09 0.10 0.12 0.13 0.14 0.13 0.12 0.13 0.14 0.14 0.14 0.13 0.16 0.18 0.15 0.15 0.14 0.09 0.07 0.06 0.03 0.02 0.01 0.01 0.02 0.02 0.02 0.01 0.01
0.03 0.04 0.04 0.06 0.07 0.09 0.09 0.08 0.08 0.09 0.08 0.07 0.08 0.08 0.09 0.11 0.12 0.14 0.13 0.13 0.16 0.17 0.15 0.14 0.13 0.13 0.12 0.14 0.15 0.16 0.15 0.10 0.09 0.09 0.07 0.04 0.03 0.03 0.02 0.02 0.01 0.02 0.02
0.02 0.02 0.04 0.05 0.04 0.05 0.05 0.06 0.08 0.09 0.07 0.06 0.06 0.07 0.08 0.09 0.10 0.13 0.13 0.14 0.16 0.18 0.18 0.16 0.13 0.12 0.12 0.14 0.18 0.17 0.14 0.13 0.11 0.12 0.12 0.09 0.07 0.06 0.05 0.04 0.03 0.03 0.04
0.02 0.03 0.04 0.04 0.04 0.04 0.04 0.05 0.06 0.08 0.08 0.07 0.07 0.08 0.08 0.10 0.11 0.10 0.11 0.12 0.14 0.16 0.16 0.16 0.18 0.15 0.12 0.12 0.16 0.19 0.19 0.18 0.16 0.12 0.13 0.13 0.12 0.10 0.08 0.07 0.07 0.06 0.06
0.02 0.03 0.03 0.03 0.03 0.03 0.03 0.04 0.07 0.07 0.07 0.06 0.07 0.07 0.06 0.06 0.08 0.07 0.06 0.09 0.11 0.13 0.13 0.14 0.14 0.16 0.13 0.11 0.11 0.14 0.18 0.21 0.21 0.18 0.16 0.13 0.12 0.10 0.08 0.09 0.09 0.09 0.08
0.03 0.03 0.03 0.04 0.03 0.02 0.02 0.03 0.06 0.07 0.06 0.06 0.06 0.07 0.06 0.06 0.05 0.04 0.05 0.07 0.09 0.10 0.10 0.12 0.12 0.12 0.12 0.11 0.11 0.13 0.15 0.19 0.20 0.16 0.14 0.13 0.12 0.11 0.10 0.10 0.11 0.11 0.09
0.02 0.02 0.02 0.03 0.03 0.02 0.02 0.04 0.05 0.05 0.05 0.05 0.05 0.05 0.05 0.04 0.05 0.06 0.06 0.06 0.07 0.07 0.09 0.11 0.12 0.11 0.13 0.11 0.12 0.12 0.13 0.13 0.13 0.15 0.15 0.14 0.13 0.13 0.11 0.11 0.13 0.12 0.10
0.01 0.02 0.02 0.03 0.03 0.04 0.05 0.06 0.05 0.06 0.06 0.06 0.06 0.05 0.05 0.06 0.06 0.08 0.08 0.08 0.08 0.07 0.07 0.08 0.10 0.12 0.15 0.16 0.14 0.14 0.13 0.13 0.13 0.14 0.16 0.17 0.18 0.17 0.14 0.12 0.13 0.11 0.09
0.00 0.01 0.02 0.02 0.03 0.03 0.05 0.06 0.06 0.06 0.05 0.06 0.06 0.05 0.05 0.05 0.05 0.06 0.08 0.08 0.08 0.08 0.09 0.10 0.09 0.10 0.14 0.15 0.18 0.17 0.15 0.13 0.14 0.15 0.14 0.15 0.15 0.16 0.16 0.13 0.13 0.12 0.10
0.01 0.01 0.00 0.01 0.01 0.01 0.01 0.03 0.05 0.06 0.06 0.05 0.06 0.05 0.04 0.03 0.03 0.04 0.07 0.08 0.07 0.07 0.09 0.08 0.08 0.07 0.08 0.10 0.14 0.17 0.18 0.15 0.11 0.12 0.12 0.13 0.13 0.12 0.14 0.14 0.11 0.10 0.09
MSLP
1012.28 1012.19 1012.02 1011.83 1011.66 1011.58 1011.60 1011.73 1011.95 1012.20 1012.42 1012.57 1012.62 1012.56 1012.45 1012.33 1012.26 1012.31 1012.48 1012.78 1013.17 1013.60 1014.01 1014.36 1014.62 1014.78 1014.89 1014.96 1015.04 1015.16 1015.34 1015.58 1015.86 1016.17 1016.49 1016.79 1017.07 1017.32 1017.56 1017.80 1018.02 1018.25 1018.47
1012.13 1011.98 1011.77 1011.55 1011.40 1011.33 1011.40 1011.58 1011.84 1012.13 1012.38 1012.55 1012.59 1012.52 1012.38 1012.21 1012.09 1012.07 1012.19 1012.45 1012.81 1013.24 1013.68 1014.09 1014.42 1014.68 1014.87 1015.01 1015.15 1015.31 1015.49 1015.72 1015.98 1016.26 1016.55 1016.83 1017.11 1017.38 1017.65 1017.92 1018.19 1018.45 1018.70
1012.05 1011.84 1011.61 1011.39 1011.25 1011.22 1011.32 1011.54 1011.84 1012.16 1012.43 1012.60 1012.63 1012.55 1012.36 1012.15 1011.96 1011.87 1011.91 1012.09 1012.39 1012.79 1013.23 1013.67 1014.06 1014.41 1014.69 1014.94 1015.15 1015.37 1015.59 1015.82 1016.06 1016.32 1016.58 1016.84 1017.12 1017.40 1017.69 1017.99 1018.30 1018.61 1018.89
1012.04 1011.80 1011.56 1011.36 1011.24 1011.24 1011.36 1011.60 1011.91 1012.23 1012.50 1012.66 1012.68 1012.57 1012.36 1012.10 1011.85 1011.68 1011.64 1011.72 1011.95 1012.28 1012.68 1013.12 1013.56 1013.97 1014.34 1014.68 1014.99 1015.28 1015.56 1015.82 1016.07 1016.32 1016.56 1016.81 1017.08 1017.36 1017.67 1018.00 1018.35 1018.69 1019.00
1012.12 1011.87 1011.63 1011.44 1011.33 1011.34 1011.47 1011.70 1011.99 1012.29 1012.52 1012.66 1012.67 1012.55 1012.33 1012.05 1011.77 1011.54 1011.42 1011.42 1011.54 1011.79 1012.12 1012.52 1012.96 1013.40 1013.84 1014.27 1014.67 1015.05 1015.39 1015.71 1015.99 1016.25 1016.49 1016.74 1017.00 1017.29 1017.61 1017.96 1018.32 1018.69 1019.03
1012.27 1012.01 1011.78 1011.60 1011.50 1011.50 1011.60 1011.79 1012.02 1012.26 1012.45 1012.56 1012.56 1012.45 1012.25 1011.99 1011.72 1011.47 1011.30 1011.22 1011.25 1011.39 1011.63 1011.96 1012.35 1012.79 1013.26 1013.74 1014.22 1014.68 1015.10 1015.48 1015.82 1016.11 1016.38 1016.63 1016.90 1017.19 1017.51 1017.86 1018.24 1018.62 1018.97
1012.47 1012.21 1011.98 1011.80 1011.69 1011.65 1011.70 1011.81 1011.97 1012.13 1012.26 1012.34 1012.35 1012.27 1012.13 1011.93 1011.71 1011.50 1011.32 1011.19 1011.14 1011.18 1011.30 1011.52 1011.83 1012.22 1012.68 1013.18 1013.71 1014.23 1014.73 1015.18 1015.58 1015.92 1016.23 1016.51 1016.78 1017.07 1017.39 1017.75 1018.12 1018.49 1018.85
1012.68 1012.42 1012.18 1011.98 1011.84 1011.76 1011.73 1011.75 1011.80 1011.88 1011.95 1012.01 1012.03 1012.02 1011.97 1011.88 1011.76 1011.62 1011.47 1011.34 1011.23 1011.17 1011.18 1011.28 1011.47 1011.78 1012.18 1012.66 1013.20 1013.76 1014.31 1014.83 1015.30 1015.70 1016.05 1016.36 1016.66 1016.96 1017.28 1017.62 1017.98 1018.34 1018.69
1012.85 1012.57 1012.32 1012.10 1011.92 1011.77 1011.66 1011.58 1011.54 1011.53 1011.55 1011.59 1011.65 1011.72 1011.78 1011.83 1011.84 1011.80 1011.72 1011.61 1011.47 1011.34 1011.24 1011.21 1011.29 1011.48 1011.79 1012.22 1012.73 1013.30 1013.89 1014.45 1014.97 1015.44 1015.84 1016.20 1016.52 1016.84 1017.15 1017.48 1017.82 1018.17 1018.51
1012.94 1012.64 1012.37 1012.12 1011.89 1011.68 1011.49 1011.33 1011.19 1011.11 1011.08 1011.12 1011.22 1011.37 1011.55 1011.73 1011.88 1011.97 1011.98 1011.91 1011.77 1011.59 1011.41 1011.27 1011.22 1011.30 1011.51 1011.85 1012.32 1012.86 1013.45 1014.05 1014.61 1015.13 1015.58 1015.98 1016.34 1016.68 1017.00 1017.33 1017.66 1017.99 1018.32
1012.92 1012.60 1012.30 1012.03 1011.76 1011.50 1011.25 1011.01 1010.81 1010.66 1010.59 1010.62 1010.75 1010.96 1011.24 1011.54 1011.81 1012.01 1012.11 1012.10 1011.98 1011.78 1011.55 1011.33 1011.19 1011.16 1011.27 1011.53 1011.93 1012.44 1013.01 1013.61 1014.19 1014.74 1015.24 1015.69 1016.09 1016.46 1016.81 1017.14 1017.47 1017.80 1018.12
1012.80 1012.46 1012.15 1011.85 1011.56 1011.27 1010.97 1010.68 1010.42 1010.23 1010.12 1010.13 1010.26 1010.51 1010.84 1011.21 1011.56 1011.85 1012.02 1012.07 1011.99 1011.80 1011.55 1011.29 1011.09 1010.99 1011.03 1011.21 1011.54 1011.99 1012.53 1013.11 1013.70 1014.27 1014.80 1015.29 1015.74 1016.15 1016.53 1016.90 1017.25 1017.58 1017.91
1012.62 1012.27 1011.95 1011.64 1011.34 1011.03 1010.71 1010.39 1010.09 1009.85 1009.70 1009.68 1009.78 1010.01 1010.34 1010.72 1011.11 1011.43 1011.66 1011.75 1011.71 1011.56 1011.33 1011.08 1010.87 1010.74 1010.73 1010.87 1011.14 1011.53 1012.02 1012.57 1013.14 1013.72 1014.27 1014.79 1015.28 1015.74 1016.17 1016.57 1016.96 1017.33 1017.68
1012.43 1012.08 1011.76 1011.46 1011.16 1010.85 1010.52 1010.19 1009.86 1009.58 1009.39 1009.30 1009.34 1009.51 1009.79 1010.13 1010.49 1010.81 1011.04 1011.17 1011.18 1011.08 1010.91 1010.71 1010.52 1010.41 1010.39 1010.50 1010.73 1011.07 1011.50 1012.01 1012.55 1013.11 1013.67 1014.21 1014.73 1015.24 1015.72 1016.17 1016.61 1017.02 1017.41
1012.30 1011.96 1011.66 1011.37 1011.09 1010.79 1010.46 1010.12 1009.78 1009.46 1009.21 1009.05 1009.00 1009.07 1009.25 1009.50 1009.79 1010.06 1010.29 1010.44 1010.49 1010.46 1010.37 1010.24 1010.12 1010.05 1010.06 1010.16 1010.36 1010.66 1011.04 1011.48 1011.98 1012.51 1013.05 1013.60 1014.14 1014.68 1015.21 1015.71 1016.20 1016.66 1017.10
1012.28 1011.96 1011.68 1011.41 1011.15 1010.87 1010.56 1010.22 1009.86 1009.51 1009.20 1008.95 1008.81 1008.76 1008.82 1008.96 1009.15 1009.36 1009.55 1009.70 1009.80 1009.84 1009.83 1009.80 1009.77 1009.76 1009.80 1009.91 1010.09 1010.35 1010.67 1011.06 1011.50 1011.98 1012.49 1013.02 1013.57 1014.12 1014.68 1015.22 1015.75 1016.25 1016.74
1012.37 1012.09 1011.84 1011.60 1011.36 1011.10 1010.80 1010.47 1010.10 1009.73 1009.37 1009.05 1008.81 1008.66 1008.59 1008.62 1008.71 1008.85 1009.00 1009.15 1009.28 1009.39 1009.46 1009.51 1009.56 1009.62 1009.70 1009.82 1009.98 1010.20 1010.47 1010.79 1011.16 1011.58 1012.05 1012.55 1013.07 1013.61 1014.17 1014.72 1015.26 1015.79 1016.31
1012.57 1012.32 1012.10 1011.89 1011.67 1011.43 1011.16 1010.84 1010.47 1010.09 1009.70 1009.33 1009.01 1008.77 1008.61 1008.54 1008.55 1008.63 1008.75 1008.90 1009.05 1009.20 1009.33 1009.45 1009.56 1009.66 1009.76 1009.88 1010.02 1010.19 1010.40 1010.66 1010.97 1011.33 1011.74 1012.19 1012.67 1013.18 1013.70 1014.23 1014.76 1015.29 1015.81
1012.81 1012.60 1012.40 1012.22 1012.02 1011.81 1011.55 1011.25 1010.90 1010.51 1010.11 1009.73 1009.37 1009.08 1008.86 1008.73 1008.69 1008.72 1008.82 1008.96 1009.12 1009.29 1009.46 1009.60 1009.73 1009.84 1009.93 1010.03 1010.13 1010.25 1010.41 1010.61 1010.87 1011.17 1011.53 1011.93 1012.37 1012.83 1013.30 1013.78 1014.27 1014.76 1015.26
1013.03 1012.85 1012.68 1012.51 1012.34 1012.14 1011.91 1011.63 1011.30 1010.93 1010.55 1010.16 1009.80 1009.50 1009.26 1009.10 1009.04 1009.05 1009.13 1009.25 1009.41 1009.57 1009.73 1009.86 1009.97 1010.04 1010.10 1010.14 1010.19 1010.27 1010.38 1010.54 1010.76 1011.04 1011.36 1011.73 1012.12 1012.53 1012.94 1013.36 1013.79 1014.23 1014.69
1013.18 1013.02 1012.87 1012.72 1012.56 1012.38 1012.17 1011.91 1011.61 1011.27 1010.91 1010.54 1010.21 1009.92 1009.69 1009.54 1009.46 1009.47 1009.53 1009.64 1009.77 1009.89 1010.00 1010.07 1010.11 1010.12 1010.10 1010.08 1010.08 1010.10 1010.19 1010.33 1010.54 1010.82 1011.14 1011.50 1011.87 1012.25 1012.61 1012.98 1013.34 1013.71 1014.12
1013.22 1013.08 1012.94 1012.80 1012.66 1012.49 1012.29 1012.06 1011.78 1011.47 1011.14 1010.81 1010.50 1010.24 1010.03 1009.90 1009.83 1009.83 1009.88 1009.95 1010.02 1010.08 1010.11 1010.09 1010.03 1009.93 1009.82 1009.72 1009.66 1009.65 1009.71 1009.87 1010.11 1010.42 1010.78 1011.17 1011.56 1011.93 1012.29 1012.61 1012.93 1013.26 1013.62
1013.17 1013.03 1012.90 1012.77 1012.64 1012.48 1012.29 1012.07 1011.81 1011.52 1011.22 1010.92 1010.64 1010.40 1010.22 1010.09 1010.03 1010.01 1010.03 1010.05 1010.05 1010.02 1009.94 1009.80 1009.62 1009.41 1009.19 1009.01 1008.89 1008.85 1008.92 1009.11 1009.40 1009.78 1010.22 1010.68 1011.14 1011.56 1011.94 1012.27 1012.58 1012.88 1013.22
1013.04 1012.91 1012.79 1012.67 1012.54 1012.39 1012.21 1012.00 1011.75 1011.47 1011.18 1010.89 1010.62 1010.40 1010.22 1010.09 1010.01 1009.97 1009.93 1009.89 1009.80 1009.67 1009.47 1009.21 1008.90 1008.57 1008.25 1007.99 1007.81 1007.76 1007.85 1008.08 1008.45 1008.93 1009.47 1010.05 1010.60 1011.12 1011.57 1011.95 1012.30 1012.62 1012.96
1012.88 1012.76 1012.64 1012.53 1012.41 1012.27 1012.09 1011.88 1011.64 1011.36 1011.07 1010.79 1010.52 1010.28 1010.09 1009.94 1009.83 1009.73 1009.64 1009.51 1009.34 1009.10 1008.79 1008.41 1007.99 1007.55 1007.14 1006.80 1006.59 1006.52 1006.63 1006.92 1007.37 1007.94 1008.61 1009.30 1009.98 1010.62 1011.18 1011.66 1012.08 1012.46 1012.84
1012.69 1012.58 1012.48 1012.38 1012.27 1012.14 1011.98 1011.77 1011.53 1011.26 1010.97 1010.67 1010.39 1010.14 1009.91 1009.73 1009.56 1009.41 1009.25 1009.05 1008.79 1008.46 1008.05 1007.58 1007.06 1006.54 1006.06 1005.67 1005.42 1005.34 1005.46 1005.79 1006.30 1006.96 1007.72 1008.53 1009.34 1010.10 1010.79 1011.38 1011.90 1012.37 1012.82
Thickness
5735 5737 5740 5742 5743 5745 5746 5747 5748 5751 5754 5757 5760 5763 5765 5765 5766 5767 5765 5763 5762 5760 5759 5757 5756 5755 5754 5754 5753 5753 5752 5752 5752 5751 5751 5750 5750 5749 5749 5748 5748 5747 5747
5730 5732 5734 5736 5738 5740 5741 5743 5745 5748 5750 5752 5755 5759 5762 5763 5765 5765 5763 5762 5762 5760 5759 5758 5756 5755 5754 5754 5753 5752 5752 5751 5751 5751 5750 5749 5749 5748 5747 5747 5746 5746 5745
5723 5726 5728 5730 5733 5735 5737 5738 5739 5742 5744 5747 5749 5753 5757 5760 5761 5763 5762 5761 5760 5760 5759 5758 5757 5756 5755 5754 5752 5751 5751 5750 5750 5749 5749 5748 5747 5746 5746 5745 5744 5744 5744
5715 5718 5720 5723 5727 5729 5732 5732 5733 5735 5737 5740 5743 5746 5750 5754 5757 5760 5761 5760 5759 5759 5758 5757 5757 5756 5754 5753 5752 5751 5750 5749 5749 5748 5748 5747 5746 5745 5744 5743 5743 5742 5742
5706 5709 5711 5715 5719 5722 5725 5727 5728 5728 5729 5732 5736 5740 5743 5747 5751 5756 5758 5760 5759 5759 5758 5756 5756 5755 5754 5753 5752 5751 5750 5749 5748 5747 5746 5745 5744 5743 5743 5742 5741 5740 5740
5697 5700 5703 5706 5710 5713 5716 5719 5721 5722 5724 5726 5729 5734 5737 5741 5745 5750 5754 5758 5759 5758 5757 5755 5754 5753 5753 5753 5752 5750 5749 5748 5747 5746 5745 5744 5743 5742 5741 5740 5739 5739 5738
5689 5692 5695 5698 5701 5704 5707 5711 5714 5715 5717 5720 5719 5722 5728 5734 5738 5744 5750 5753 5755 5755 5754 5753 5752 5752 5752 5751 5750 5750 5748 5747 5746 5745 5744 5743 5742 5741 5740 5739 5738 5737 5736
5683 5686 5688 5690 5694 5696 5699 5703 5706 5707 5710 5714 5712 5711 5712 5719 5728 5738 5743 5746 5749 5751 5752 5751 5752 5752 5752 5751 5749 5748 5747 5746 5745 5744 5743 5741 5740 5739 5738 5737 5736 5735 5734
5678 5680 5682 5684 5688 5690 5692 5696 5699 5700 5701 5706 5710 5708 5706 5707 5716 5726 5735 5740 5743 5746 5748 5749 5750 5750 5750 5750 5749 5747 5746 5745 5744 5743 5741 5740 5739 5737 5736 5735 5734 5733 5732
5674 5675 5677 5679 5682 5685 5687 5690 5694 5695 5696 5697 5702 5708 5711 5712 5709 5711 5722 5731 5736 5739 5742 5745 5746 5747 5749 5749 5748 5746 5744 5743 5742 5741 5740 5738 5737 5736 5734 5733 5732 5731 5730
5669 5671 5672 5674 5676 5679 5682 5684 5687 5689 5691 5693 5695 5699 5703 5706 5709 5707 5708 5717 5724 5731 5736 5738 5742 5744 5745 5746 5745 5744 5742 5741 5739 5738 5738 5736 5735 5733 5732 5731 5730 5728 5727
5664 5666 5668 5669 5672 5674 5676 5679 5681 5684 5686 5689 5692 5695 5696 5698 5701 5704 5704 5708 5713 5721 5728 5733 5736 5738 5740 5741 5742 5741 5739 5738 5736 5735 5735 5734 5732 5731 5730 5728 5727 5726 5724
5660 5662 5663 5665 5667 5670 5672 5674 5676 5678 5682 5684 5686 5690 5693 5696 5699 5701 5701 5702 5706 5712 5718 5724 5730 5733 5735 5736 5736 5736 5735 5733 5733 5732 5731 5730 5729 5728 5727 5725 5724 5722 5721
5658 5660 5661 5663 5664 5667 5668 5670 5672 5674 5678 5680 5683 5685 5688 5691 5695 5697 5698 5697 5697 5701 5708 5714 5721 5727 5729 5730 5730 5730 5729 5729 5729 5728 5727 5726 5725 5724 5723 5722 5720 5719 5717
5659 5659 5660 5661 5662 5663 5665 5666 5667 5670 5673 5675 5678 5681 5683 5687 5691 5694 5696 5697 5694 5692 5696 5705 5712 5719 5722 5724 5724 5724 5724 5724 5724 5723 5723 5722 5721 5720 5719 5717 5716 5715 5713
5658 5658 5659 5660 5661 5661 5662 5663 5664 5667 5668 5671 5674 5676 5679 5682 5685 5688 5691 5693 5694 5693 5692 5700 5707 5713 5716 5718 5717 5718 5719 5719 5719 5718 5718 5717 5716 5715 5714 5713 5711 5710 5708
5658 5658 5659 5659 5659 5659 5659 5660 5661 5664 5665 5666 5669 5672 5675 5678 5680 5683 5686 5689 5690 5692 5690 5695 5701 5707 5709 5710 5710 5712 5713 5713 5713 5712 5712 5711 5710 5709 5708 5707 5706 5704 5703
5659 5658 5658 5657 5656 5656 5656 5656 5657 5659 5661 5661 5664 5667 5670 5673 5675 5678 5681 5684 5686 5689 5689 5688 5692 5697 5700 5704 5704 5705 5706 5706 5706 5706 5705 5705 5704 5704 5703 5702 5700 5699 5697
5658 5657 5656 5655 5654 5654 5653 5654 5655 5656 5657 5659 5661 5663 5665 5668 5669 5673 5676 5679 5682 5686 5687 5686 5687 5690 5693 5696 5697 5697 5698 5699 5699 5699 5699 5698 5698 5697 5697 5695 5694 5692 5691
5657 5655 5654 5654 5653 5651 5651 5650 5651 5652 5654 5656 5658 5659 5661 5663 5665 5668 5671 5674 5677 5679 5681 5681 5682 5683 5685 5688 5689 5688 5688 5689 5690 5691 5691 5690 5690 5690 5689 5689 5688 5686 5684
5657 5655 5653 5652 5651 5650 5648 5647 5647 5649 5651 5652 5655 5657 5659 5661 5662 5664 5666 5668 5670 5672 5674 5675 5675 5677 5678 5679 5681 5682 5681 5680 5681 5683 5683 5683 5682 5682 5681 5681 5680 5679 5678
5657 5655 5653 5651 5649 5648 5647 5646 5646 5646 5648 5649 5651 5654 5656 5657 5659 5661 5662 5664 5666 5666 5667 5669 5671 5672 5674 5676 5677 5677 5675 5673 5671 5675 5675 5674 5675 5674 5674 5674 5673 5672 5671
5658 5655 5653 5651 5649 5647 5647 5647 5646 5646 5647 5648 5650 5651 5653 5655 5655 5656 5658 5660 5661 5664 5666 5668 5668 5670 5672 5674 5673 5671 5671 5670 5669 5670 5668 5666 5667 5666 5667 5666 5666 5665 5664
5659 5656 5654 5652 5650 5648 5647 5646 5646 5646 5647 5647 5648 5649 5649 5650 5652 5652 5653 5654 5656 5659 5663 5666 5667 5669 5671 5672 5672 5670 5668 5664 5662 5662 5663 5659 5659 5659 5659 5659 5658 5657 5657
5661 5659 5657 5654 5651 5650 5648 5646 5646 5645 5645 5646 5646 5647 5647 5647 5648 5649 5650 5650 5651 5654 5659 5662 5664 5665 5667 5668 5668 5664 5661 5658 5655 5654 5656 5655 5653 5652 5650 5650 5651 5651 5650
5663 5661 5659 5657 5654 5651 5649 5647 5646 5645 5644 5644 5644 5645 5645 5645 5645 5646 5646 5647 5647 5650 5653 5655 5657 5659 5661 5662 5663 5662 5660 5656 5653 5649 5650 5649 5647 5645 5642 5643 5644 5644 5644